Location: City of Moscow
(46.7306°N, 116.9989°W)
Time: 04:51:43
(UTC+00:00)

Orbus 7S? - Pass Details

Date: 17 March 2026
Orbit: 354 x 6170 km, 56.9° (Epoch: 30 September)

Event Time Altitude Azimuth Distance (km) Brightness Sun altitude
Rises 11:52:29 0° 175° (S) 10,469 9.6 -21.6°
Reaches altitude 10° 12:00:59 10° 169° (S) 9,645 9.5 -20.3°
Maximum altitude 12:32:49 40° 114° (ESE) 6,230 9.0 -15.1°
Drops below altitude 10° 12:51:57 10° 55° (NE) 6,117 9.7 -11.9°
Sets 12:55:40 0° 48° (NE) 6,544 9.9 -11.2°
